[[{"header":{"parameterUnit":"m.s-1","parameterCategory":1,"la1":30.2991,"la2":30.254,"lo1":-89.0895,"lo2":-89.0444,"dy":0.0017,"dx":0.0017,"nx":28,"ny":28,"refTime":"2024-10-03T09:00:00:Z","depth":0,"parameterNumber":2,"parameterNumberName":"U-component_of_WINDS"},"data":[0,0,0,0,0,0,0,0,0,0,0,0,0,0,0,0,0,0,0,0,0,0,0,0,0,0,0,0,0,0,0,0,0,0,0,0,0,0,0,0,0,0,0,0,0,0,0,0,0,0,0,0,0,0,0,0,0,0,-3.6626,-3.6627,0,-3.6672,-3.6672,-3.6673,-3.656,-3.6556,-3.6552,-3.6549,-3.6596,-3.6601,-3.6605,0,0,0,0,0,0,0,0,0,0,0,0,0,-3.6444,-3.6448,-3.6626,-3.6627,-3.6628,-3.6671,-3.6672,-3.6673,-3.656,-3.6556,-3.6552,-3.6547,-3.6595,-3.66,-3.6606,0,0,0,0,0,0,0,0,0,0,0,0,0,-3.651,-3.6449,-3.6626,-3.6577,-3.6573,-3.6671,-3.6672,-3.6673,-3.6561,-3.6556,-3.655,-3.6545,-3.6593,-3.66,-3.6607,-3.6756,0,0,-3.6628,-3.6631,0,0,0,0,0,0,0,0,-3.6506,-3.6516,-3.6583,-3.658,-3.6576,-3.6604,-3.6625,-3.6701,-3.6562,-3.6566,-3.6549,-3.6543,-3.6604,-3.6609,-3.6629,-3.6758,-3.676,-3.6628,-3.6632,-3.6635,-3.6637,0,0,0,0,0,0,0,-3.6501,-3.6514,-3.6644,-3.6584,-3.658,-3.6552,-3.6556,-3.6639,-3.6614,-3.6565,-3.6557,-3.6564,-3.66,-3.6623,-3.663,-3.6761,-3.6628,-3.6634,-3.6638,-3.6641,-3.7015,-3.7021,0,0,0,0,0,0,-3.6503,-3.6511,-3.6643,-3.6646,-3.6527,-3.656,-3.6564,-3.6601,-3.6613,-3.6609,-3.6568,-3.6558,-3.6614,-3.6622,-3.6631,-3.6808,-3.6635,-3.6642,-3.6646,-3.701,-3.7017,-3.7023,0,0,0,0,0,0,-3.65,-3.6516,-3.6641,-3.6576,-3.659,-3.6569,-3.6611,-3.6604,-3.6627,-3.6615,-3.661,-3.6596,-3.661,-3.6621,-3.6726,-3.6808,-3.6645,-3.6651,-3.7003,-3.7012,-3.702,-3.7163,0,0,0,0,0,0,-3.6495,-3.6515,-3.6572,-3.6578,-3.6594,-3.6736,-3.6616,-3.6609,-3.6639,-3.6626,-3.664,-3.6637,-3.6607,-3.6716,-3.6733,-3.6814,-3.6656,-3.6995,-3.7007,-3.7017,-3.715,-3.7175,-3.7196,0,0,0,0,0,-3.6489,-3.661,-3.6575,-3.6592,-3.6664,-3.674,-3.6749,-3.6712,-3.6646,-3.6703,-3.6695,-3.6637,-3.6796,-3.6728,-3.6745,-3.6831,-3.699,-3.7003,-3.7016,-3.714,-3.717,-3.7196,0,0,0,0,0,0,-3.6614,-3.661,-3.6571,-3.6698,-3.6721,-3.6721,-3.6792,-3.6744,-3.6786,-3.6773,-3.6724,-3.6728,-3.6843,-3.6846,-3.6771,-3.6976,-3.6882,-3.6899,-3.697,-3.6998,-3.7021,-3.7019,-3.6662,0,0,0,0,0,-3.6657,-3.6719,-3.6712,-3.6825,-3.6838,-3.6813,-3.6845,-3.6814,-3.6835,-3.6844,-3.6844,-3.6868,-3.6923,-3.696,-3.701,-3.7149,-3.7152,-3.7217,-3.7239,-3.7258,-3.7275,-3.735,-3.7379,-3.7066,-3.7066,-3.7066,0,0,-3.6745,-3.675,-3.6793,-3.685,-3.6864,-3.693,-3.6822,-3.6896,-3.6945,-3.6856,-3.6955,-3.6956,-3.6978,-3.7102,-3.7156,-3.7108,-3.7361,-3.7275,-3.729,-3.7296,-3.7367,-3.7396,-3.7423,-3.7075,-3.7073,-3.7072,0,0,-3.6941,-3.695,-3.7046,-3.7062,-3.7084,-3.7067,-3.709,-3.7098,-3.7095,-3.7193,-3.7128,-3.7185,-3.7281,-3.73,-3.7323,-3.7526,-3.7474,-3.7543,-3.7664,-3.7738,-3.7762,-3.7784,-3.7859,-3.7886,-3.7559,-3.7559,-3.7559,0,-3.7049,-3.7146,-3.7101,-3.7181,-3.7209,-3.713,-3.7227,-3.7244,-3.7282,-3.7303,-3.7249,-3.7368,-3.7377,-3.7505,-3.7555,-3.7574,-3.76,-3.7543,-3.7762,-3.7784,-3.7803,-3.7874,-3.7902,-3.7568,-3.7567,-3.7566,-3.7565,0,-3.7278,-3.7346,-3.742,-3.7459,-3.7494,-3.7582,-3.7552,-3.7594,-3.7559,-3.7548,-3.765,-3.7659,-3.771,-3.7737,-3.7704,-3.786,-3.783,-3.777,-3.7675,-3.7842,-3.7908,-3.7934,-3.758,-3.7577,-3.7574,-3.7572,0,0,-3.7555,-3.7568,-3.7596,-3.7613,-3.7631,-3.7684,-3.7768,-3.7818,-3.7855,-3.7883,-3.7954,-3.8036,-3.7981,-3.8007,-3.7975,-3.804,-3.8203,-3.7971,-3.7971,-3.8016,-3.8377,-3.8424,-3.8456,-3.8167,-3.8172,-3.8176,-3.8376,0,-3.775,-3.7896,-3.7858,-3.8003,-3.8066,-3.7992,-3.8066,-3.8085,-3.8077,-3.813,-3.8119,-3.818,-3.8101,-3.8116,-3.8177,-3.817,-3.8275,-3.8155,-3.8234,-3.8237,-3.8233,-3.849,-3.854,-3.8728,-3.8401,-3.8405,-3.8408,0,-3.7998,-3.8036,-3.8187,-3.8196,-3.8221,-3.8288,-3.8331,-3.8381,-3.8402,-3.8391,-3.842,-3.8376,-3.846,-3.8362,-3.8478,-3.8397,-3.8427,-3.8429,-3.8435,-3.8443,-3.8335,-3.8507,-3.8787,-3.8817,-3.8448,-3.8445,-3.8442,0,-3.8188,-3.8277,-3.8379,-3.8395,-3.8407,-3.8457,-3.8464,-3.8479,-3.8512,-3.8549,-3.857,-3.8616,-3.8643,-3.868,-3.865,-3.8581,-3.8772,-3.8671,-3.8766,-3.8768,-3.8812,-3.881,-3.9103,-3.8828,-3.8827,-3.8827,-3.8826,0,-3.8411,-3.8507,-3.8465,-3.8528,-3.8634,-3.859,-3.8695,-3.8694,-3.8708,-3.8771,-3.8708,-3.8768,-3.8723,-3.8779,-3.8756,-3.8856,-3.8868,-3.8863,-3.8856,-3.887,-3.8871,-3.8891,-3.8878,-3.8834,-3.8832,-3.8831,-3.883,0,-3.8643,-3.8618,-3.8725,-3.8727,-3.873,-3.8808,-3.881,-3.8869,-3.8856,-3.8935,-3.8951,-3.8931,-3.8993,-3.8966,-3.9032,-3.9016,-3.9146,-3.9121,-3.914,-3.9134,-3.9232,-3.9225,-3.9551,-3.9592,-3.9287,-3.929,-3.9293,0,-3.8788,-3.886,-3.887,-3.8908,-3.8919,-3.898,-3.9013,-3.8972,-3.9009,-3.9038,-3.9094,-3.9151,-3.9195,-3.9299,-3.929,-3.934,-3.9317,-3.9428,-3.9324,-3.9337,-3.9322,-3.9319,-3.9327,-3.9449,-3.9453,-3.9456,-3.9458,0,-3.9049,-3.9033,-3.9083,-3.913,-3.9171,-3.9205,-3.9234,-3.9268,-3.9228,-3.9273,-3.9336,-3.937,-3.9437,-3.9496,-3.954,-3.9548,-3.9498,-3.949,-3.9516,-3.9532,-3.9541,-3.954,-3.9199,-3.9484,-3.9481,-3.9479,-3.9478,-3.9477,-3.9244,-3.9305,-3.9322,-3.938,-3.9397,-3.9426,-3.9482,-3.9475,-3.9527,-3.9579,-3.9551,-3.9626,-3.9645,-3.9699,-3.9714,-3.9772,-3.9729,-3.9765,-3.9774,-3.9784,-3.9799,-3.953,-3.978,-3.9779,-3.9778,-3.9777,-3.9777,0,-3.9504,-3.9511,-3.9564,-3.9607,-3.9653,-3.96,-3.9629,-3.9671,-3.9738,-3.9759,-3.9804,-3.9877,-3.9934,-3.9929,-3.9981,-4.0028,-4.0007,-4.0044,-4.0041,-4.0044,-3.9833,-3.9807,-4.006,-4.006,-4.006,-4.006,-4.006,-4.006,-3.9645,-3.9746,-3.9733,-3.9842,-3.9848,-3.9921,-3.9942,-3.9969,-3.9986,-4.0071,-4.0117,-4.0114,-4.0125,-4.0177,-4.0227,-4.0224,-4.0247,-4.0294,-4.0283,-4.0086,-4.0058,-4.0032,-4.0007,-4.0298,-4.0299,-4.0488,-4.049,-4.0492]},{"header":{"parameterUnit":"m.s-1","parameterCategory":1,"la1":30.2991,"la2":30.254,"lo1":-89.0895,"lo2":-89.0444,"dy":0.0017,"dx":0.0017,"nx":28,"ny":28,"refTime":"2024-10-03T09:00:00:Z","depth":0,"parameterNumber":3,"parameterNumberName":"V-component_of_WINDS"},"data":[0,0,0,0,0,0,0,0,0,0,0,0,0,0,0,0,0,0,0,0,0,0,0,0,0,0,0,0,0,0,0,0,0,0,0,0,0,0,0,0,0,0,0,0,0,0,0,0,0,0,0,0,0,0,0,0,0,0,-3.6115,-3.6115,0,-3.61,-3.6099,-3.6099,-3.6037,-3.6036,-3.6034,-3.6033,-3.6017,-3.6018,-3.6018,0,0,0,0,0,0,0,0,0,0,0,0,0,-3.6091,-3.6091,-3.6115,-3.6115,-3.6115,-3.61,-3.6099,-3.6099,-3.6037,-3.6036,-3.6034,-3.6032,-3.6016,-3.6017,-3.6019,0,0,0,0,0,0,0,0,0,0,0,0,0,-3.6091,-3.6092,-3.6116,-3.6082,-3.6079,-3.61,-3.6099,-3.6099,-3.6038,-3.6035,-3.6033,-3.6031,-3.6016,-3.6017,-3.6019,-3.607,0,0,-3.6023,-3.6023,0,0,0,0,0,0,0,0,-3.6091,-3.6092,-3.6087,-3.6085,-3.6081,-3.6068,-3.6085,-3.6089,-3.6038,-3.6053,-3.6033,-3.603,-3.6036,-3.6035,-3.6037,-3.6069,-3.6069,-3.6023,-3.6024,-3.6024,-3.6025,0,0,0,0,0,0,0,-3.6091,-3.6092,-3.6109,-3.6087,-3.6084,-3.6068,-3.6065,-3.6085,-3.6057,-3.6052,-3.6047,-3.6046,-3.6033,-3.6036,-3.6036,-3.6068,-3.6023,-3.6024,-3.6025,-3.6026,-3.614,-3.6142,0,0,0,0,0,0,-3.6096,-3.6093,-3.611,-3.6109,-3.6081,-3.607,-3.6067,-3.6074,-3.6056,-3.6051,-3.6048,-3.6043,-3.6034,-3.6035,-3.6035,-3.6093,-3.6024,-3.6026,-3.6026,-3.6138,-3.6141,-3.6143,0,0,0,0,0,0,-3.6096,-3.6098,-3.611,-3.6099,-3.61,-3.6073,-3.6081,-3.6075,-3.6078,-3.6053,-3.6048,-3.6056,-3.6033,-3.6033,-3.6061,-3.6092,-3.6026,-3.6027,-3.6135,-3.6139,-3.6142,-3.621,0,0,0,0,0,0,-3.6095,-3.6098,-3.6118,-3.61,-3.6101,-3.6137,-3.6083,-3.6077,-3.608,-3.6074,-3.6059,-3.6055,-3.6031,-3.606,-3.6063,-3.6092,-3.6029,-3.6132,-3.6137,-3.6141,-3.6205,-3.6215,-3.6224,0,0,0,0,0,-3.6094,-3.6138,-3.6119,-3.6122,-3.6125,-3.6139,-3.6139,-3.6111,-3.6083,-3.6102,-3.6086,-3.6055,-3.6088,-3.6063,-3.6066,-3.6096,-3.613,-3.6136,-3.614,-3.62,-3.6213,-3.6223,0,0,0,0,0,0,-3.6161,-3.6135,-3.6114,-3.6153,-3.6149,-3.6129,-3.6152,-3.6126,-3.6129,-3.6123,-3.6088,-3.6085,-3.6118,-3.611,-3.6083,-3.6144,-3.6104,-3.611,-3.6148,-3.616,-3.6169,-3.6171,-3.603,0,0,0,0,0,-3.618,-3.6194,-3.6171,-3.6208,-3.6206,-3.618,-3.6185,-3.6164,-3.6158,-3.6156,-3.6142,-3.6137,-3.6146,-3.6153,-3.616,-3.6203,-3.6198,-3.6225,-3.6235,-3.6243,-3.6248,-3.6269,-3.628,-3.6159,-3.6159,-3.6159,0,0,-3.6219,-3.6207,-3.6219,-3.6221,-3.6215,-3.6229,-3.6179,-3.6197,-3.6207,-3.6158,-3.6184,-3.6173,-3.6166,-3.6201,-3.6216,-3.6195,-3.628,-3.6249,-3.6256,-3.6257,-3.6275,-3.6287,-3.6297,-3.6163,-3.6162,-3.6162,0,0,-3.6299,-3.6292,-3.6321,-3.6316,-3.6307,-3.6289,-3.6296,-3.6279,-3.627,-3.6295,-3.6258,-3.627,-3.6286,-3.6282,-3.6281,-3.6358,-3.6329,-3.6361,-3.6411,-3.6432,-3.6441,-3.6449,-3.6475,-3.6485,-3.6366,-3.6367,-3.6367,0,-3.635,-3.6371,-3.6339,-3.636,-3.6361,-3.6317,-3.6345,-3.6342,-3.6336,-3.6338,-3.6314,-3.6333,-3.6325,-3.6358,-3.6376,-3.6378,-3.6384,-3.6362,-3.6442,-3.645,-3.6457,-3.6482,-3.6492,-3.637,-3.637,-3.637,-3.6369,0,-3.6432,-3.6448,-3.6472,-3.6467,-3.6471,-3.6496,-3.6467,-3.6475,-3.6453,-3.6437,-3.6462,-3.645,-3.6453,-3.646,-3.6439,-3.649,-3.6477,-3.6449,-3.6407,-3.6473,-3.6495,-3.6505,-3.6376,-3.6375,-3.6373,-3.6373,0,0,-3.6554,-3.653,-3.654,-3.6536,-3.6522,-3.6533,-3.6555,-3.6557,-3.6564,-3.6562,-3.6578,-3.6592,-3.6566,-3.6566,-3.6543,-3.6562,-3.6621,-3.6531,-3.653,-3.6547,-3.6675,-3.6696,-3.6707,-3.6602,-3.6604,-3.6605,-3.6675,0,-3.6629,-3.6665,-3.6637,-3.6678,-3.669,-3.6648,-3.6666,-3.666,-3.6645,-3.6653,-3.6637,-3.6647,-3.6612,-3.6611,-3.6627,-3.6611,-3.6646,-3.6605,-3.6616,-3.6617,-3.6619,-3.6719,-3.6741,-3.6808,-3.6684,-3.6685,-3.6686,0,-3.6722,-3.6722,-3.6764,-3.6746,-3.675,-3.6768,-3.6767,-3.6776,-3.6767,-3.6755,-3.6754,-3.6726,-3.6745,-3.6705,-3.6731,-3.6703,-3.6706,-3.6699,-3.67,-3.67,-3.6656,-3.672,-3.6829,-3.6839,-3.67,-3.6699,-3.6698,0,-3.6805,-3.6816,-3.6842,-3.6841,-3.6821,-3.6833,-3.6826,-3.6814,-3.6817,-3.6816,-3.6818,-3.682,-3.682,-3.6822,-3.6795,-3.6769,-3.6824,-3.6782,-3.6813,-3.6814,-3.6827,-3.6826,-3.6937,-3.683,-3.683,-3.683,-3.683,0,-3.6892,-3.6919,-3.6879,-3.6895,-3.6924,-3.689,-3.692,-3.6907,-3.6897,-3.691,-3.6873,-3.6885,-3.6849,-3.6858,-3.6837,-3.686,-3.6861,-3.6851,-3.6845,-3.6854,-3.6856,-3.6855,-3.685,-3.6832,-3.6832,-3.6831,-3.6831,0,-3.699,-3.6964,-3.699,-3.6968,-3.6963,-3.6985,-3.6966,-3.698,-3.6962,-3.6978,-3.698,-3.6952,-3.696,-3.6933,-3.6937,-3.6922,-3.6957,-3.6944,-3.696,-3.6955,-3.6989,-3.6985,-3.7102,-3.7115,-3.7001,-3.7003,-3.7003,0,-3.7046,-3.7066,-3.7046,-3.7051,-3.7045,-3.7055,-3.7057,-3.7024,-3.7028,-3.7018,-3.7033,-3.7037,-3.7039,-3.7054,-3.7034,-3.7036,-3.7022,-3.7062,-3.7022,-3.703,-3.7021,-3.702,-3.7021,-3.7071,-3.7072,-3.7073,-3.7074,0,-3.7149,-3.7135,-3.714,-3.714,-3.7143,-3.7142,-3.7138,-3.7144,-3.7109,-3.7115,-3.7122,-3.7124,-3.7126,-3.7131,-3.7129,-3.712,-3.7091,-3.7087,-3.7094,-3.7103,-3.7112,-3.7106,-3.6982,-3.7085,-3.7084,-3.7083,-3.7082,-3.7082,-3.7227,-3.7242,-3.723,-3.7236,-3.7229,-3.7226,-3.7237,-3.722,-3.7225,-3.7225,-3.7205,-3.7216,-3.7205,-3.7198,-3.7192,-3.72,-3.7181,-3.7192,-3.7194,-3.7198,-3.7203,-3.7111,-3.72,-3.7199,-3.7199,-3.7199,-3.7198,0,-3.7327,-3.7317,-3.7322,-3.7317,-3.7322,-3.7294,-3.7287,-3.7293,-3.7302,-3.7294,-3.7297,-3.7304,-3.7308,-3.7288,-3.7289,-3.7298,-3.7285,-3.73,-3.7298,-3.7297,-3.722,-3.7213,-3.731,-3.731,-3.731,-3.731,-3.731,-3.731,-3.738,-3.7403,-3.7387,-3.7406,-3.7395,-3.7405,-3.7403,-3.7399,-3.7393,-3.7402,-3.7405,-3.7392,-3.7379,-3.7378,-3.738,-3.7374,-3.7376,-3.7395,-3.7384,-3.7313,-3.7302,-3.7292,-3.7285,-3.7395,-3.7396,-3.7459,-3.746,-3.746]}]]